| time (UTC) | temp C | wind direction | speed KPH | gust KPH | rain 1hr cm | rain 24hr cm | rain mn cm | humidity % | barometer mb |
| 20260506060155 | 16 | 148 | 3.2 | 6.4 | 0.00 | 0.38 | 0.38 | 58 | 1006.1 |
| 20260506051127 | 17 | 102 | 6.4 | 6.4 | 0.00 | 0.38 | 0.38 | 54 | 1006.0 |
| 20260506050625 | 17 | 133 | 6.4 | 8.0 | 0.00 | 0.38 | 0.38 | 54 | 1005.8 |
| 20260506050122 | 17 | 92 | 0.0 | 4.8 | 0.00 | 0.38 | 0.38 | 54 | 1005.9 |
| 20260506045115 | 17 | 101 | 3.2 | 4.8 | 0.00 | 0.38 | 0.38 | 54 | 1005.6 |
| 20260506044613 | 17 | 149 | 1.6 | 6.4 | 0.00 | 0.38 | 0.38 | 54 | 1005.6 |
| 20260506044110 | 17 | 136 | 3.2 | 4.8 | 0.00 | 0.38 | 0.38 | 53 | 1005.6 |
| 20260506043607 | 18 | 129 | 4.8 | 6.4 | 0.00 | 0.38 | 0.38 | 52 | 1005.2 |
| 20260506043105 | 18 | 108 | 3.2 | 6.4 | 0.00 | 0.38 | 0.38 | 52 | 1005.6 |
| 20260506042604 | 18 | 127 | 3.2 | 9.7 | 0.00 | 0.38 | 0.38 | 52 | 1005.4 |
| 20260506042101 | 18 | 147 | 6.4 | 11.3 | 0.00 | 0.38 | 0.38 | 51 | 1005.3 |
| 20260506041600 | 18 | 139 | 8.0 | 14.5 | 0.00 | 0.38 | 0.38 | 50 | 1005.4 |
| 20260506041056 | 18 | 125 | 4.8 | 6.4 | 0.00 | 0.38 | 0.38 | 49 | 1005.2 |
| 20260506040554 | 18 | 107 | 3.2 | 6.4 | 0.00 | 0.38 | 0.38 | 49 | 1004.7 |
| 20260506040050 | 18 | 118 | 6.4 | 6.4 | 0.00 | 0.38 | 0.38 | 49 | 1004.7 |
| 20260506035547 | 18 | 81 | 1.6 | 6.4 | 0.00 | 0.38 | 0.38 | 49 | 1004.8 |
| 20260506035044 | 18 | 125 | 4.8 | 6.4 | 0.00 | 0.38 | 0.38 | 49 | 1004.4 |
| 20260506034541 | 18 | 130 | 3.2 | 4.8 | 0.00 | 0.38 | 0.38 | 48 | 1004.5 |
| 20260506034038 | 18 | 108 | 1.6 | 8.0 | 0.00 | 0.38 | 0.38 | 47 | 1004.3 |
| 20260506033535 | 18 | 82 | 3.2 | 8.0 | 0.00 | 0.38 | 0.38 | 47 | 1004.2 |
| 20260506033032 | 18 | 113 | 3.2 | 6.4 | 0.00 | 0.38 | 0.38 | 47 | 1004.3 |
| 20260506032530 | 18 | 235 | 3.2 | 4.8 | 0.00 | 0.38 | 0.38 | 46 | 1004.1 |
| 20260506032026 | 19 | 96 | 4.8 | 8.0 | 0.00 | 0.38 | 0.38 | 45 | 1004.1 |
| 20260506031524 | 19 | 305 | 1.6 | 4.8 | 0.00 | 0.38 | 0.38 | 43 | 1004.0 |
| 20260506031021 | 18 | 112 | 4.8 | 6.4 | 0.00 | 0.38 | 0.38 | 42 | 1003.9 |
| 20260506030519 | 19 | 50 | 0.0 | 6.4 | 0.00 | 0.38 | 0.38 | 40 | 1004.1 |
| 20260506030016 | 19 | 110 | 3.2 | 4.8 | 0.00 | 0.38 | 0.38 | 39 | 1003.8 |
| 20260506025513 | 19 | 13 | 0.0 | 4.8 | 0.00 | 0.38 | 0.38 | 39 | 1003.8 |
| 20260506025009 | 20 | 123 | 3.2 | 8.0 | 0.00 | 0.38 | 0.38 | 39 | 1003.7 |
| 20260506024506 | 20 | 103 | 3.2 | 6.4 | 0.00 | 0.38 | 0.38 | 38 | 1003.7 |
| 20260506024001 | 20 | 115 | 3.2 | 9.7 | 0.00 | 0.38 | 0.38 | 37 | 1003.7 |
| 20260506023458 | 20 | 129 | 4.8 | 8.0 | 0.00 | 0.38 | 0.38 | 36 | 1003.5 |
| 20260506022955 | 20 | 99 | 4.8 | 11.3 | 0.00 | 0.38 | 0.38 | 36 | 1003.4 |
| 20260506022453 | 20 | 58 | 3.2 | 9.7 | 0.00 | 0.38 | 0.38 | 35 | 1003.4 |
| 20260506021951 | 20 | 87 | 6.4 | 9.7 | 0.00 | 0.38 | 0.38 | 34 | 1003.2 |
| 20260506021448 | 20 | 111 | 4.8 | 14.5 | 0.00 | 0.38 | 0.38 | 33 | 1002.8 |
| 20260506020945 | 20 | 128 | 6.4 | 19.3 | 0.00 | 0.38 | 0.38 | 34 | 1002.8 |
| 20260506020442 | 20 | 149 | 4.8 | 12.9 | 0.00 | 0.38 | 0.38 | 34 | 1002.7 |
| 20260506015939 | 20 | 106 | 4.8 | 11.3 | 0.00 | 0.38 | 0.38 | 33 | 1002.7 |
| 20260506015437 | 20 | 159 | 8.0 | 12.9 | 0.00 | 0.38 | 0.38 | 33 | 1002.7 |
| 20260506014934 | 21 | 98 | 8.0 | 12.9 | 0.00 | 0.38 | 0.38 | 33 | 1002.6 |
| 20260506014431 | 21 | 126 | 8.0 | 22.5 | 0.00 | 0.38 | 0.38 | 33 | 1002.7 |
| 20260506013927 | 21 | 144 | 4.8 | 19.3 | 0.00 | 0.38 | 0.38 | 33 | 1002.7 |
| 20260506013425 | 21 | 119 | 8.0 | 12.9 | 0.00 | 0.38 | 0.38 | 33 | 1002.4 |
| 20260506012921 | 21 | 88 | 6.4 | 17.7 | 0.00 | 0.38 | 0.38 | 33 | 1002.5 |
| 20260506012418 | 21 | 177 | 3.2 | 12.9 | 0.00 | 0.38 | 0.38 | 35 | 1002.6 |
| 20260506011915 | 21 | 143 | 6.4 | 17.7 | 0.00 | 0.38 | 0.38 | 35 | 1002.6 |
| 20260506011412 | 21 | 107 | 11.3 | 16.1 | 0.00 | 0.38 | 0.38 | 35 | 1002.4 |
| 20260506010909 | 21 | 100 | 9.7 | 14.5 | 0.00 | 0.38 | 0.38 | 35 | 1002.7 |
| 20260506010408 | 21 | 128 | 14.5 | 16.1 | 0.00 | 0.38 | 0.38 | 36 | 1002.3 |
| 20260506005904 | 21 | 121 | 9.7 | 14.5 | 0.00 | 0.38 | 0.38 | 36 | 1002.5 |
| 20260506005402 | 21 | 112 | 6.4 | 17.7 | 0.00 | 0.38 | 0.38 | 35 | 1002.2 |
| 20260506004856 | 21 | 138 | 4.8 | 9.7 | 0.00 | 0.38 | 0.38 | 35 | 1002.1 |
| 20260506004355 | 22 | 33 | 3.2 | 9.7 | 0.00 | 0.38 | 0.38 | 33 | 1002.3 |
| 20260506003851 | 22 | 0 | 1.6 | 8.0 | 0.00 | 0.38 | 0.38 | 34 | 1002.2 |
| 20260506003347 | 22 | 86 | 4.8 | 9.7 | 0.00 | 0.38 | 0.38 | 32 | 1002.3 |
| 20260506002843 | 22 | 137 | 8.0 | 8.0 | 0.00 | 0.38 | 0.38 | 31 | 1002.1 |
| 20260506002340 | 23 | 54 | 4.8 | 8.0 | 0.00 | 0.38 | 0.38 | 30 | 1002.3 |
| 20260506001835 | 23 | 61 | 3.2 | 9.7 | 0.00 | 0.38 | 0.38 | 31 | 1002.2 |
| 20260506001333 | 23 | 125 | 8.0 | 14.5 | 0.00 | 0.38 | 0.38 | 30 | 1001.9 |
| 20260506000829 | 23 | 4 | 8.0 | 12.9 | 0.00 | 0.38 | 0.38 | 30 | 1002.1 |
| 20260506000329 | 24 | 7 | 6.4 | 6.4 | 0.00 | 0.38 | 0.38 | 29 | 1001.7 |
| 20260505235824 | 23 | 107 | 9.7 | 9.7 | 0.00 | 0.38 | 0.38 | 30 | 1002.0 |
| 20260505235321 | 23 | 36 | 6.4 | 8.0 | 0.00 | 0.38 | 0.38 | 30 | 1001.7 |
| 20260505234818 | 24 | 67 | 0.0 | 8.0 | 0.00 | 0.38 | 0.38 | 30 | 1001.9 |
| 20260505234316 | 24 | 108 | 3.2 | 6.4 | 0.00 | 0.38 | 0.38 | 30 | 1001.7 |
| 20260505233813 | 23 | 137 | 3.2 | 4.8 | 0.00 | 0.38 | 0.38 | 29 | 1002.0 |
| 20260505233311 | 23 | 184 | 3.2 | 9.7 | 0.00 | 0.38 | 0.38 | 28 | 1001.7 |
| 20260505232808 | 25 | 190 | 0.0 | 9.7 | 0.00 | 0.38 | 0.38 | 27 | 1001.9 |
| 20260505232306 | 25 | 115 | 6.4 | 9.7 | 0.00 | 0.38 | 0.38 | 28 | 1002.0 |
| 20260505231802 | 25 | 224 | 3.2 | 8.0 | 0.00 | 0.38 | 0.38 | 28 | 1001.7 |
| 20260505231300 | 25 | 131 | 3.2 | 9.7 | 0.00 | 0.38 | 0.38 | 27 | 1001.9 |
| 20260505230758 | 24 | 9 | 3.2 | 8.0 | 0.00 | 0.38 | 0.38 | 28 | 1001.7 |
| 20260505230254 | 24 | 3 | 3.2 | 12.9 | 0.00 | 0.38 | 0.38 | 29 | 1001.7 |
| 20260505225751 | 25 | 132 | 4.8 | 8.0 | 0.00 | 0.38 | 0.38 | 27 | 1001.9 |
| 20260505225248 | 24 | 174 | 4.8 | 8.0 | 0.00 | 0.38 | 0.38 | 28 | 1002.1 |
| 20260505224743 | 25 | 140 | 8.0 | 14.5 | 0.00 | 0.38 | 0.38 | 26 | 1002.0 |
| 20260505224241 | 25 | 338 | 3.2 | 6.4 | 0.00 | 0.38 | 0.38 | 28 | 1001.9 |
| 20260505223738 | 25 | 135 | 8.0 | 14.5 | 0.00 | 0.38 | 0.38 | 27 | 1002.1 |
| 20260505223235 | 25 | 1 | 6.4 | 12.9 | 0.00 | 0.38 | 0.38 | 30 | 1002.0 |
| 20260505222731 | 24 | 346 | 4.8 | 9.7 | 0.00 | 0.38 | 0.38 | 31 | 1002.0 |
| 20260505222227 | 24 | 50 | 0.0 | 6.4 | 0.00 | 0.38 | 0.38 | 34 | 1002.4 |
| 20260505221724 | 24 | 51 | 3.2 | 9.7 | 0.00 | 0.38 | 0.38 | 33 | 1002.0 |
| 20260505221221 | 24 | 318 | 3.2 | 4.8 | 0.00 | 0.38 | 0.38 | 32 | 1002.3 |
| 20260505220718 | 23 | 6 | 9.7 | 12.9 | 0.00 | 0.38 | 0.38 | 33 | 1002.1 |
| 20260505220216 | 25 | 99 | 6.4 | 12.9 | 0.00 | 0.38 | 0.38 | 32 | 1002.1 |
| 20260505215713 | 25 | 153 | 1.6 | 9.7 | 0.00 | 0.38 | 0.38 | 34 | 1002.2 |
| 20260505215211 | 22 | 82 | 3.2 | 9.7 | 0.00 | 0.38 | 0.38 | 36 | 1002.4 |
| 20260505214708 | 23 | 6 | 3.2 | 19.3 | 0.00 | 0.38 | 0.38 | 36 | 1002.5 |
| 20260505214206 | 23 | 127 | 6.4 | 12.9 | 0.00 | 0.38 | 0.38 | 34 | 1002.6 |
| 20260505213703 | 23 | 296 | 3.2 | 14.5 | 0.00 | 0.38 | 0.38 | 34 | 1002.6 |
| 20260505213200 | 23 | 11 | 8.0 | 9.7 | 0.00 | 0.38 | 0.38 | 34 | 1002.8 |
| 20260505212656 | 23 | 72 | 6.4 | 14.5 | 0.00 | 0.38 | 0.38 | 34 | 1002.8 |
| 20260505212153 | 25 | 129 | 3.2 | 9.7 | 0.00 | 0.38 | 0.38 | 33 | 1003.0 |
| 20260505211650 | 23 | 6 | 11.3 | 25.7 | 0.00 | 0.38 | 0.38 | 33 | 1002.9 |
| 20260505211148 | 25 | 55 | 1.6 | 8.0 | 0.00 | 0.38 | 0.38 | 34 | 1002.8 |
| 20260505210644 | 23 | 0 | 14.5 | 16.1 | 0.00 | 0.38 | 0.38 | 33 | 1002.8 |
| 20260505210141 | 24 | 16 | 6.4 | 17.7 | 0.00 | 0.38 | 0.38 | 34 | 1002.9 |
| 20260505205638 | 24 | 32 | 6.4 | 17.7 | 0.00 | 0.38 | 0.38 | 33 | 1002.9 |
| 20260505205137 | 24 | 358 | 8.0 | 22.5 | 0.00 | 0.38 | 0.38 | 33 | 1003.0 |
| 20260505204633 | 25 | 9 | 14.5 | 20.9 | 0.00 | 0.38 | 0.38 | 32 | 1002.9 |
| 20260505204131 | 24 | 353 | 1.6 | 17.7 | 0.00 | 0.38 | 0.38 | 34 | 1003.2 |
| 20260505203628 | 24 | 1 | 12.9 | 17.7 | 0.00 | 0.38 | 0.38 | 32 | 1003.2 |
| 20260505203125 | 23 | 352 | 12.9 | 19.3 | 0.00 | 0.38 | 0.38 | 32 | 1003.1 |
| 20260505202620 | 23 | 343 | 6.4 | 19.3 | 0.00 | 0.38 | 0.38 | 33 | 1003.1 |
| 20260505202116 | 24 | 14 | 19.3 | 20.9 | 0.00 | 0.38 | 0.38 | 32 | 1003.0 |
| 20260505201613 | 24 | 6 | 9.7 | 24.1 | 0.00 | 0.38 | 0.38 | 33 | 1003.2 |
| 20260505201111 | 24 | 13 | 8.0 | 29.0 | 0.00 | 0.38 | 0.38 | 34 | 1003.1 |
| 20260505200609 | 24 | 2 | 12.9 | 14.5 | 0.00 | 0.38 | 0.38 | 36 | 1003.0 |
| 20260505200105 | 24 | 180 | 4.8 | 14.5 | 0.00 | 0.38 | 0.38 | 33 | 1003.4 |
| 20260505195601 | 25 | 27 | 6.4 | 12.9 | 0.00 | 0.38 | 0.38 | 33 | 1003.4 |
| 20260505195059 | 24 | 333 | 6.4 | 19.3 | 0.00 | 0.38 | 0.38 | 35 | 1003.4 |
| 20260505194556 | 23 | 2 | 3.2 | 11.3 | 0.00 | 0.38 | 0.38 | 38 | 1003.5 |
| 20260505194052 | 23 | 18 | 6.4 | 27.4 | 0.00 | 0.38 | 0.38 | 37 | 1003.5 |
| 20260505193549 | 23 | 86 | 3.2 | 12.9 | 0.00 | 0.38 | 0.38 | 40 | 1003.4 |
| 20260505193046 | 23 | 5 | 11.3 | 29.0 | 0.00 | 0.38 | 0.38 | 39 | 1003.6 |
| 20260505192545 | 23 | 42 | 8.0 | 20.9 | 0.00 | 0.38 | 0.38 | 40 | 1003.4 |
| 20260505192042 | 23 | 114 | 4.8 | 12.9 | 0.00 | 0.38 | 0.38 | 43 | 1003.4 |
| 20260505191540 | 23 | 353 | 4.8 | 17.7 | 0.00 | 0.38 | 0.38 | 45 | 1003.5 |
| 20260505191037 | 23 | 51 | 4.8 | 16.1 | 0.00 | 0.38 | 0.38 | 46 | 1003.6 |
| 20260505190532 | 23 | 253 | 4.8 | 9.7 | 0.00 | 0.38 | 0.38 | 46 | 1003.5 |
| 20260505190028 | 23 | 0 | 4.8 | 12.9 | 0.00 | 0.38 | 0.38 | 47 | 1003.5 |
| 20260505185525 | 23 | 125 | 3.2 | 11.3 | 0.00 | 0.38 | 0.38 | 48 | 1003.7 |
| 20260505185021 | 22 | 6 | 16.1 | 24.1 | 0.00 | 0.38 | 0.38 | 48 | 1003.8 |
| 20260505184518 | 22 | 11 | 12.9 | 19.3 | 0.00 | 0.38 | 0.38 | 49 | 1004.1 |
| 20260505184015 | 22 | 40 | 4.8 | 17.7 | 0.00 | 0.38 | 0.38 | 52 | 1003.9 |
| 20260505183512 | 22 | 2 | 1.6 | 6.4 | 0.00 | 0.38 | 0.38 | 54 | 1003.9 |
| 20260505183009 | 22 | 6 | 3.2 | 12.9 | 0.00 | 0.38 | 0.38 | 53 | 1004.3 |
| 20260505182506 | 22 | 72 | 3.2 | 6.4 | 0.00 | 0.38 | 0.38 | 53 | 1004.1 |
| 20260505182002 | 22 | 99 | 6.4 | 8.0 | 0.00 | 0.38 | 0.38 | 51 | 1004.3 |
| 20260505181459 | 21 | 191 | 0.0 | 4.8 | 0.00 | 0.38 | 0.38 | 52 | 1004.0 |
| 20260505180956 | 22 | 331 | 4.8 | 29.0 | 0.00 | 0.38 | 0.38 | 54 | 1004.3 |
| 20260505180452 | 21 | 20 | 4.8 | 9.7 | 0.00 | 0.38 | 0.38 | 55 | 1004.3 |
| 20260505175949 | 21 | 32 | 3.2 | 6.4 | 0.00 | 0.38 | 0.38 | 56 | 1004.4 |
| 20260505175445 | 21 | 244 | 3.2 | 6.4 | 0.00 | 0.38 | 0.38 | 53 | 1004.8 |
| 20260505174942 | 20 | 99 | 4.8 | 6.4 | 0.00 | 0.38 | 0.38 | 61 | 1004.6 |
| 20260505174439 | 20 | 54 | 4.8 | 8.0 | 0.00 | 0.38 | 0.38 | 64 | 1004.4 |
| 20260505173935 | 20 | 148 | 4.8 | 6.4 | 0.00 | 0.38 | 0.38 | 60 | 1004.7 |
| 20260505173431 | 20 | 122 | 0.0 | 6.4 | 0.00 | 0.38 | 0.38 | 60 | 1004.7 |
| 20260505172929 | 19 | 29 | 6.4 | 6.4 | 0.00 | 0.38 | 0.38 | 62 | 1004.7 |
| 20260505172427 | 18 | 138 | 3.2 | 3.2 | 0.00 | 0.38 | 0.38 | 65 | 1004.8 |
| 20260505171926 | 18 | 121 | 6.4 | 6.4 | 0.00 | 0.38 | 0.38 | 65 | 1005.0 |
| 20260505171423 | 18 | 75 | 3.2 | 6.4 | 0.00 | 0.38 | 0.38 | 67 | 1004.6 |
| 20260505170920 | 18 | 119 | 3.2 | 6.4 | 0.00 | 0.38 | 0.38 | 65 | 1004.8 |
| 20260505170417 | 19 | 222 | 3.2 | 6.4 | 0.00 | 0.38 | 0.38 | 65 | 1004.8 |
| 20260505165912 | 18 | 20 | 3.2 | 4.8 | 0.00 | 0.38 | 0.38 | 64 | 1004.6 |
| 20260505165408 | 18 | 214 | 3.2 | 6.4 | 0.00 | 0.38 | 0.38 | 66 | 1004.8 |
| 20260505164904 | 18 | 147 | 0.0 | 3.2 | 0.00 | 0.38 | 0.38 | 65 | 1004.6 |
| 20260505164401 | 18 | 214 | 1.6 | 3.2 | 0.00 | 0.38 | 0.38 | 67 | 1004.7 |
| 20260505163859 | 18 | 108 | 3.2 | 3.2 | 0.00 | 0.38 | 0.38 | 66 | 1004.7 |
| 20260505163358 | 18 | 151 | 1.6 | 3.2 | 0.00 | 0.38 | 0.38 | 66 | 1004.6 |
| 20260505162856 | 18 | 106 | 0.0 | 4.8 | 0.00 | 0.38 | 0.38 | 68 | 1004.5 |
| 20260505162351 | 17 | 268 | 0.0 | 6.4 | 0.00 | 0.38 | 0.38 | 74 | 1004.7 |
| 20260505161848 | 17 | 166 | 1.6 | 3.2 | 0.00 | 0.38 | 0.38 | 76 | 1004.8 |
| 20260505161345 | 17 | 314 | 1.6 | 4.8 | 0.00 | 0.38 | 0.38 | 76 | 1004.8 |
| 20260505160843 | 17 | 100 | 1.6 | 4.8 | 0.00 | 0.38 | 0.38 | 75 | 1004.6 |
| 20260505160341 | 17 | 120 | 3.2 | 4.8 | 0.00 | 0.38 | 0.38 | 75 | 1005.1 |
| 20260505153320 | 17 | 130 | 3.2 | 6.4 | 0.00 | 0.38 | 0.38 | 79 | 1004.6 |
| 20260505152817 | 17 | 119 | 3.2 | 6.4 | 0.00 | 0.38 | 0.38 | 79 | 1004.8 |
| 20260505152314 | 17 | 124 | 3.2 | 6.4 | 0.00 | 0.38 | 0.38 | 79 | 1004.6 |
| 20260505151813 | 17 | 125 | 4.8 | 6.4 | 0.00 | 0.38 | 0.38 | 80 | 1004.4 |
| 20260505151311 | 17 | 125 | 3.2 | 4.8 | 0.00 | 0.38 | 0.38 | 83 | 1004.5 |
| 20260505150808 | 17 | 97 | 4.8 | 4.8 | 0.00 | 0.38 | 0.38 | 85 | 1004.6 |
| 20260505150305 | 16 | 52 | 1.6 | 3.2 | 0.00 | 0.38 | 0.38 | 85 | 1004.3 |
| 20260505140235 | 15 | 110 | 0.0 | 3.2 | 0.00 | 0.38 | 0.38 | 97 | 1004.2 |
| 20260505130158 | 14 | 356 | 1.6 | 3.2 | 0.00 | 0.38 | 0.38 | 98 | 1003.9 |
| 20260505124648 | 14 | 37 | 0.0 | 3.2 | 0.00 | 0.36 | 0.36 | 98 | 1003.5 |
| 20260505124145 | 14 | 69 | 1.6 | 3.2 | 0.00 | 0.36 | 0.36 | 98 | 1003.5 |
| 20260505123641 | 14 | 195 | 0.0 | 3.2 | 0.00 | 0.36 | 0.36 | 98 | 1003.2 |
| 20260505123138 | 14 | 131 | 0.0 | 3.2 | 0.00 | 0.36 | 0.36 | 98 | 1003.4 |
| 20260505122634 | 14 | 172 | 3.2 | 3.2 | 0.00 | 0.36 | 0.36 | 98 | 1003.4 |
| 20260505122132 | 14 | 180 | 0.0 | 3.2 | 0.00 | 0.36 | 0.36 | 98 | 1003.2 |
| 20260505121628 | 14 | 134 | 1.6 | 3.2 | 0.00 | 0.36 | 0.36 | 98 | 1003.5 |
| 20260505121125 | 14 | 161 | 1.6 | 3.2 | 0.00 | 0.36 | 0.36 | 98 | 1003.5 |
| 20260505120621 | 14 | 50 | 0.0 | 3.2 | 0.00 | 0.36 | 0.36 | 98 | 1003.4 |
| 20260505120118 | 14 | 280 | 3.2 | 4.8 | 0.00 | 0.36 | 0.36 | 98 | 1003.4 |
| 20260505115618 | 14 | 330 | 3.2 | 3.2 | 0.00 | 0.36 | 0.36 | 98 | 1003.0 |
| 20260505115115 | 14 | 346 | 3.2 | 4.8 | 0.00 | 0.36 | 0.36 | 98 | 1003.2 |
| 20260505114612 | 14 | 28 | 0.0 | 3.2 | 0.05 | 0.36 | 0.36 | 98 | 1003.1 |
| 20260505114109 | 14 | 304 | 0.0 | 4.8 | 0.00 | 0.36 | 0.36 | 98 | 1002.9 |
| 20260505113605 | 14 | 60 | 0.0 | 6.4 | 0.00 | 0.36 | 0.36 | 98 | 1002.9 |
| 20260505113101 | 14 | 298 | 1.6 | 6.4 | 0.00 | 0.36 | 0.36 | 98 | 1003.0 |
| 20260505112558 | 14 | 303 | 4.8 | 6.4 | 0.00 | 0.36 | 0.36 | 98 | 1003.2 |
| 20260505112056 | 14 | 346 | 4.8 | 6.4 | 0.05 | 0.36 | 0.36 | 98 | 1003.7 |
| 20260505111550 | 14 | 0 | 0.0 | 3.2 | 0.05 | 0.36 | 0.36 | 98 | 1003.4 |
| 20260505111046 | 14 | 16 | 3.2 | 6.4 | 0.00 | 0.33 | 0.33 | 98 | 1003.7 |
| 20260505110543 | 14 | 326 | 0.0 | 4.8 | 0.00 | 0.33 | 0.33 | 98 | 1003.5 |
| 20260505102015 | 14 | 302 | 3.2 | 4.8 | 0.05 | 0.33 | 0.33 | 98 | 1003.9 |
| 20260505101513 | 14 | 274 | 3.2 | 6.4 | 0.00 | 0.33 | 0.33 | 98 | 1004.0 |
| 20260505101009 | 14 | 59 | 1.6 | 6.4 | 0.00 | 0.33 | 0.33 | 98 | 1004.4 |
| 20260505100507 | 14 | 287 | 3.2 | 4.8 | 0.00 | 0.33 | 0.33 | 98 | 1004.6 |
| 20260505100003 | 14 | 14 | 3.2 | 8.0 | 0.00 | 0.33 | 0.33 | 98 | 1004.5 |
| 20260505095459 | 14 | 12 | 4.8 | 8.0 | 0.00 | 0.33 | 0.33 | 98 | 1004.4 |
| 20260505094955 | 14 | 10 | 1.6 | 6.4 | 0.00 | 0.33 | 0.33 | 98 | 1004.5 |
| 20260505094453 | 14 | 300 | 1.6 | 6.4 | 0.00 | 0.33 | 0.33 | 98 | 1004.4 |
| 20260505093949 | 14 | 284 | 3.2 | 6.4 | 0.05 | 0.33 | 0.33 | 98 | 1004.5 |
| 20260505093446 | 14 | 301 | 6.4 | 11.3 | 0.18 | 0.33 | 0.33 | 97 | 1004.6 |
| 20260505092943 | 14 | 330 | 3.2 | 6.4 | 0.18 | 0.30 | 0.30 | 97 | 1004.7 |
| 20260505092440 | 14 | 232 | 0.0 | 4.8 | 0.23 | 0.30 | 0.30 | 97 | 1004.8 |
| 20260505091938 | 14 | 310 | 4.8 | 8.0 | 0.13 | 0.28 | 0.28 | 97 | 1005.0 |
| 20260505091435 | 14 | 5 | 4.8 | 6.4 | 0.05 | 0.25 | 0.25 | 97 | 1004.7 |
| 20260505090933 | 14 | 296 | 9.7 | 9.7 | 0.05 | 0.25 | 0.25 | 97 | 1004.8 |
| 20260505090431 | 14 | 337 | 8.0 | 12.9 | 0.05 | 0.25 | 0.25 | 97 | 1005.0 |
| 20260505085928 | 14 | 299 | 4.8 | 9.7 | 0.05 | 0.25 | 0.25 | 97 | 1004.8 |
| 20260505085426 | 14 | 291 | 8.0 | 9.7 | 0.05 | 0.23 | 0.23 | 97 | 1004.8 |
| 20260505084924 | 14 | 350 | 1.6 | 9.7 | 0.00 | 0.23 | 0.23 | 97 | 1005.2 |
| 20260505084422 | 14 | 301 | 8.0 | 9.7 | 0.00 | 0.23 | 0.23 | 97 | 1005.2 |
| 20260505083920 | 14 | 354 | 6.4 | 6.4 | 0.05 | 0.23 | 0.23 | 97 | 1005.4 |
| 20260505083417 | 14 | 344 | 3.2 | 6.4 | 0.05 | 0.23 | 0.23 | 97 | 1005.4 |
| 20260505082913 | 14 | 346 | 3.2 | 12.9 | 0.13 | 0.23 | 0.23 | 97 | 1005.7 |
| 20260505082409 | 14 | 350 | 4.8 | 6.4 | 0.13 | 0.23 | 0.23 | 97 | 1005.9 |
| 20260505081906 | 14 | 318 | 6.4 | 9.7 | 0.05 | 0.20 | 0.20 | 97 | 1006.2 |
| 20260505081403 | 14 | 322 | 0.0 | 6.4 | 0.13 | 0.20 | 0.20 | 97 | 1006.5 |
| 20260505080859 | 14 | 359 | 0.0 | 6.4 | 0.13 | 0.18 | 0.18 | 97 | 1006.8 |
| 20260505080355 | 15 | 357 | 3.2 | 6.4 | 0.13 | 0.18 | 0.18 | 97 | 1006.6 |
| 20260505075851 | 15 | 25 | 1.6 | 4.8 | 0.13 | 0.18 | 0.18 | 97 | 1006.6 |
| 20260505075348 | 15 | 352 | 1.6 | 4.8 | 0.18 | 0.15 | 0.15 | 97 | 1006.8 |
| 20260505074845 | 15 | 306 | 3.2 | 4.8 | 0.23 | 0.15 | 0.15 | 97 | 1007.1 |
| 20260505074342 | 15 | 0 | 3.2 | 4.8 | 0.23 | 0.13 | 0.13 | 97 | 1007.0 |
| 20260505073840 | 15 | 7 | 1.6 | 4.8 | 0.18 | 0.10 | 0.10 | 96 | 1006.9 |
| 20260505073337 | 15 | 29 | 3.2 | 3.2 | 0.23 | 0.10 | 0.10 | 96 | 1007.0 |
| 20260505072834 | 15 | 6 | 0.0 | 3.2 | 0.23 | 0.08 | 0.08 | 96 | 1007.1 |
| 20260505072330 | 15 | 333 | 0.0 | 1.6 | 0.13 | 0.05 | 0.05 | 96 | 1007.2 |
| 20260505071826 | 14 | 20 | 0.0 | 4.8 | 0.13 | 0.03 | 0.03 | 96 | 1007.1 |
| 20260505071323 | 15 | 300 | 4.8 | 4.8 | 0.05 | 0.03 | 0.03 | 96 | 1006.9 |
| 20260505070821 | 15 | 358 | 4.8 | 4.8 | 0.05 | 0.00 | 0.00 | 96 | 1007.0 |
| 20260505070318 | 15 | 28 | 0.0 | 6.4 | 0.13 | 0.00 | 0.00 | 95 | 1006.9 |
| 20260505065813 | 15 | 1 | 0.0 | 3.2 | 0.13 | 0.46 | 0.46 | 95 | 1006.8 |
| 20260505065310 | 15 | 0 | 0.0 | 3.2 | 0.13 | 0.46 | 0.46 | 95 | 1006.8 |
| 20260505064807 | 15 | 25 | 0.0 | 3.2 | 0.18 | 0.46 | 0.46 | 95 | 1006.8 |
| 20260505064304 | 15 | 7 | 3.2 | 4.8 | 0.13 | 0.43 | 0.43 | 95 | 1006.8 |
| 20260505063802 | 15 | 22 | 4.8 | 4.8 | 0.13 | 0.43 | 0.43 | 94 | 1006.9 |
| 20260505063258 | 15 | 345 | 3.2 | 4.8 | 0.18 | 0.41 | 0.41 | 94 | 1006.7 |
| 20260505062754 | 15 | 10 | 3.2 | 6.4 | 0.13 | 0.38 | 0.38 | 94 | 1006.7 |
| 20260505062252 | 15 | 276 | 3.2 | 4.8 | 0.18 | 0.38 | 0.38 | 93 | 1006.8 |
| 20260505061748 | 15 | 292 | 1.6 | 4.8 | 0.18 | 0.38 | 0.38 | 93 | 1007.0 |
| 20260505061246 | 15 | 262 | 3.2 | 6.4 | 0.13 | 0.36 | 0.36 | 92 | 1006.9 |
| 20260505060744 | 15 | 239 | 3.2 | 3.2 | 0.05 | 0.33 | 0.33 | 92 | 1006.8 |
| 20260505060241 | 15 | 228 | 3.2 | 4.8 | 0.05 | 0.33 | 0.33 | 92 | 1006.8 |